Year,Month,Day,Hour,Minute,Value (Times are PST for temperature in C)
2006,04,28,00,00,9.10
2006,04,28,00,01,9.00
2006,04,28,00,02,9.00
2006,04,28,00,03,9.00
2006,04,28,00,04,9.00
2006,04,28,00,05,9.00
2006,04,28,00,06,9.00
2006,04,28,00,07,9.00
2006,04,28,00,08,9.00
2006,04,28,00,09,8.90
2006,04,28,00,10,8.90
2006,04,28,00,11,8.90
2006,04,28,00,12,8.90
2006,04,28,00,13,8.90
2006,04,28,00,14,8.90
2006,04,28,00,15,8.90
2006,04,28,00,16,8.90
2006,04,28,00,17,8.90
2006,04,28,00,18,8.90
2006,04,28,00,19,8.90
2006,04,28,00,20,8.90
2006,04,28,00,21,8.90
2006,04,28,00,22,8.90
2006,04,28,00,23,8.90
2006,04,28,00,24,8.90
2006,04,28,00,25,8.90
2006,04,28,00,26,8.80
2006,04,28,00,27,8.80
2006,04,28,00,28,8.80
2006,04,28,00,29,8.80
2006,04,28,00,30,8.80
2006,04,28,00,31,8.80
2006,04,28,00,32,8.80
2006,04,28,00,33,8.80
2006,04,28,00,34,8.80
2006,04,28,00,35,8.80
2006,04,28,00,36,8.80
2006,04,28,00,37,8.80
2006,04,28,00,38,8.80
2006,04,28,00,39,8.80
2006,04,28,00,40,8.80
2006,04,28,00,41,8.80
2006,04,28,00,42,8.80
2006,04,28,00,43,8.80
2006,04,28,00,44,8.80
2006,04,28,00,45,8.80
2006,04,28,00,46,8.80
2006,04,28,00,47,8.80
2006,04,28,00,48,8.80
2006,04,28,00,49,8.80
2006,04,28,00,50,8.80
2006,04,28,00,51,8.80
2006,04,28,00,52,8.80
2006,04,28,00,53,8.80
2006,04,28,00,54,8.70
2006,04,28,00,55,8.70
2006,04,28,00,56,8.70
2006,04,28,00,57,8.70
2006,04,28,00,58,8.70
2006,04,28,00,59,8.70
2006,04,28,01,00,8.80
2006,04,28,01,01,8.80
2006,04,28,01,02,8.80
2006,04,28,01,03,8.80
2006,04,28,01,04,8.80
2006,04,28,01,05,8.80
2006,04,28,01,06,8.80
2006,04,28,01,07,8.80
2006,04,28,01,08,8.80
2006,04,28,01,09,8.80
2006,04,28,01,10,8.80
2006,04,28,01,11,8.80
2006,04,28,01,12,8.80
2006,04,28,01,13,8.80
2006,04,28,01,14,8.80
2006,04,28,01,15,8.80
2006,04,28,01,16,8.80
2006,04,28,01,17,8.80
2006,04,28,01,18,8.80
2006,04,28,01,19,8.90
2006,04,28,01,20,8.90
2006,04,28,01,21,8.90
2006,04,28,01,22,8.90
2006,04,28,01,23,8.90
2006,04,28,01,24,8.90
2006,04,28,01,25,8.90
2006,04,28,01,26,8.90
2006,04,28,01,27,8.90
2006,04,28,01,28,8.90
2006,04,28,01,29,8.90
2006,04,28,01,30,8.90
2006,04,28,01,31,8.90
2006,04,28,01,32,8.90
2006,04,28,01,33,8.90
2006,04,28,01,34,8.90
2006,04,28,01,35,8.90
2006,04,28,01,36,8.90
2006,04,28,01,37,8.90
2006,04,28,01,38,8.90
2006,04,28,01,39,8.90
2006,04,28,01,40,8.80
2006,04,28,01,41,8.80
2006,04,28,01,42,8.80
2006,04,28,01,43,8.80
2006,04,28,01,44,8.70
2006,04,28,01,45,8.70
2006,04,28,01,46,8.70
2006,04,28,01,47,8.70
2006,04,28,01,48,8.70
2006,04,28,01,49,8.70
2006,04,28,01,50,8.70
2006,04,28,01,51,8.70
2006,04,28,01,52,8.70
2006,04,28,01,53,8.70
2006,04,28,01,54,8.70
2006,04,28,01,55,8.70
2006,04,28,01,56,8.70
2006,04,28,01,57,8.60
2006,04,28,01,58,8.60
2006,04,28,01,59,8.60
2006,04,28,02,00,8.60
2006,04,28,02,01,8.60
2006,04,28,02,02,8.60
2006,04,28,02,03,8.60
2006,04,28,02,04,8.60
2006,04,28,02,05,8.60
2006,04,28,02,06,8.60
2006,04,28,02,07,8.60
2006,04,28,02,08,8.60
2006,04,28,02,09,8.60
2006,04,28,02,10,8.60
2006,04,28,02,11,8.60
2006,04,28,02,12,8.60
2006,04,28,02,13,8.60
2006,04,28,02,14,8.60
2006,04,28,02,15,8.60
2006,04,28,02,16,8.70
2006,04,28,02,17,8.70
2006,04,28,02,18,8.70
2006,04,28,02,19,8.70
2006,04,28,02,20,8.70
2006,04,28,02,21,8.70
2006,04,28,02,22,8.70
2006,04,28,02,23,8.70
2006,04,28,02,24,8.70
2006,04,28,02,25,8.70
2006,04,28,02,26,8.70
2006,04,28,02,27,8.70
2006,04,28,02,28,8.70
2006,04,28,02,29,8.60
2006,04,28,02,30,8.60
2006,04,28,02,31,8.60
2006,04,28,02,32,8.60
2006,04,28,02,33,8.60
2006,04,28,02,34,8.60
2006,04,28,02,35,8.60
2006,04,28,02,36,8.60
2006,04,28,02,37,8.60
2006,04,28,02,38,8.50
2006,04,28,02,39,8.50
2006,04,28,02,40,8.50
2006,04,28,02,41,8.50
2006,04,28,02,42,8.50
2006,04,28,02,43,8.50
2006,04,28,02,44,8.50
2006,04,28,02,45,8.50
2006,04,28,02,46,8.50
2006,04,28,02,47,8.60
2006,04,28,02,48,8.60
2006,04,28,02,49,8.70
2006,04,28,02,50,8.70
2006,04,28,02,51,8.70
2006,04,28,02,52,8.70
2006,04,28,02,53,8.70
2006,04,28,02,54,8.70
2006,04,28,02,55,8.70
2006,04,28,02,56,8.70
2006,04,28,02,57,8.70
2006,04,28,02,58,8.70
2006,04,28,02,59,8.70
2006,04,28,03,00,8.80
2006,04,28,03,01,8.80
2006,04,28,03,02,8.80
2006,04,28,03,03,8.90
2006,04,28,03,04,8.90
2006,04,28,03,05,8.90
2006,04,28,03,06,8.90
2006,04,28,03,07,8.90
2006,04,28,03,08,9.00
2006,04,28,03,09,9.00
2006,04,28,03,10,9.00
2006,04,28,03,11,9.00
2006,04,28,03,12,8.90
2006,04,28,03,13,8.90
2006,04,28,03,14,8.90
2006,04,28,03,15,8.90
2006,04,28,03,16,8.80
2006,04,28,03,17,8.80
2006,04,28,03,18,8.80
2006,04,28,03,19,8.80
2006,04,28,03,20,8.70
2006,04,28,03,21,8.70
2006,04,28,03,22,8.70
2006,04,28,03,23,8.70
2006,04,28,03,24,8.70
2006,04,28,03,25,8.70
2006,04,28,03,26,8.60
2006,04,28,03,27,8.60
2006,04,28,03,28,8.60
2006,04,28,03,29,8.60
2006,04,28,03,30,8.50
2006,04,28,03,31,8.50
2006,04,28,03,32,8.50
2006,04,28,03,33,8.50
2006,04,28,03,34,8.50
2006,04,28,03,35,8.50
2006,04,28,03,36,8.50
2006,04,28,03,37,8.40
2006,04,28,03,38,8.40
2006,04,28,03,39,8.40
2006,04,28,03,40,8.40
2006,04,28,03,41,8.40
2006,04,28,03,42,8.40
2006,04,28,03,43,8.40
2006,04,28,03,44,8.40
2006,04,28,03,45,8.40
2006,04,28,03,46,8.40
2006,04,28,03,47,8.40
2006,04,28,03,48,8.40
2006,04,28,03,49,8.40
2006,04,28,03,50,8.40
2006,04,28,03,51,8.40
2006,04,28,03,52,8.30
2006,04,28,03,53,8.30
2006,04,28,03,54,8.30
2006,04,28,03,55,8.30
2006,04,28,03,56,8.30
2006,04,28,03,57,8.30
2006,04,28,03,58,8.30
2006,04,28,03,59,8.30
2006,04,28,04,00,8.30
2006,04,28,04,01,8.30
2006,04,28,04,02,8.30
2006,04,28,04,03,8.30
2006,04,28,04,04,8.30
2006,04,28,04,05,8.30
2006,04,28,04,06,8.40
2006,04,28,04,07,8.40
2006,04,28,04,08,8.40
2006,04,28,04,09,8.30
2006,04,28,04,10,8.30
2006,04,28,04,11,8.30
2006,04,28,04,12,8.40
2006,04,28,04,13,8.40
2006,04,28,04,14,8.40
2006,04,28,04,15,8.40
2006,04,28,04,16,8.30
2006,04,28,04,17,8.30
2006,04,28,04,18,8.30
2006,04,28,04,19,8.30
2006,04,28,04,20,8.30
2006,04,28,04,21,8.30
2006,04,28,04,22,8.30
2006,04,28,04,23,8.30
2006,04,28,04,24,8.30
2006,04,28,04,25,8.20
2006,04,28,04,26,8.20
2006,04,28,04,27,8.20
2006,04,28,04,28,8.20
2006,04,28,04,29,8.20
2006,04,28,04,30,8.20
2006,04,28,04,31,8.20
2006,04,28,04,32,8.30
2006,04,28,04,33,8.30
2006,04,28,04,34,8.30
2006,04,28,04,35,8.20
2006,04,28,04,36,8.20
2006,04,28,04,37,8.20
2006,04,28,04,38,8.20
2006,04,28,04,39,8.20
2006,04,28,04,40,8.20
2006,04,28,04,41,8.20
2006,04,28,04,42,8.30
2006,04,28,04,43,8.30
2006,04,28,04,44,8.30
2006,04,28,04,45,8.40
2006,04,28,04,46,8.40
2006,04,28,04,47,8.50
2006,04,28,04,48,8.50
2006,04,28,04,49,8.60
2006,04,28,04,50,8.60
2006,04,28,04,51,8.60
2006,04,28,04,52,8.60
2006,04,28,04,53,8.60
2006,04,28,04,54,8.60
2006,04,28,04,55,8.60
2006,04,28,04,56,8.50
2006,04,28,04,57,8.50
2006,04,28,04,58,8.50
2006,04,28,04,59,8.40
2006,04,28,05,00,8.40
2006,04,28,05,01,8.40
2006,04,28,05,02,8.40
2006,04,28,05,03,8.30
2006,04,28,05,04,8.30
2006,04,28,05,05,8.30
2006,04,28,05,06,8.30
2006,04,28,05,07,8.30
2006,04,28,05,08,8.30
2006,04,28,05,09,8.30
2006,04,28,05,10,8.40
2006,04,28,05,11,8.40
2006,04,28,05,12,8.50
2006,04,28,05,13,8.60
2006,04,28,05,14,8.70
2006,04,28,05,15,8.70
2006,04,28,05,16,8.70
2006,04,28,05,17,8.70
2006,04,28,05,18,8.70
2006,04,28,05,19,8.70
2006,04,28,05,20,8.80
2006,04,28,05,21,8.80
2006,04,28,05,22,8.80
2006,04,28,05,23,8.90
2006,04,28,05,24,8.90
2006,04,28,05,25,8.80
2006,04,28,05,26,8.80
2006,04,28,05,27,8.80
2006,04,28,05,28,8.70
2006,04,28,05,29,8.70
2006,04,28,05,30,8.70
2006,04,28,05,31,8.70
2006,04,28,05,32,8.70
2006,04,28,05,33,8.70
2006,04,28,05,34,8.70
2006,04,28,05,35,8.70
2006,04,28,05,36,8.70
2006,04,28,05,37,8.70
2006,04,28,05,38,8.70
2006,04,28,05,39,8.70
2006,04,28,05,40,8.70
2006,04,28,05,41,8.60
2006,04,28,05,42,8.60
2006,04,28,05,43,8.60
2006,04,28,05,44,8.60
2006,04,28,05,45,8.60
2006,04,28,05,46,8.60
2006,04,28,05,47,8.70
2006,04,28,05,48,8.70
2006,04,28,05,49,8.70
2006,04,28,05,50,8.70
2006,04,28,05,51,8.70
2006,04,28,05,52,8.70
2006,04,28,05,53,8.70
2006,04,28,05,54,8.70
2006,04,28,05,55,8.70
2006,04,28,05,56,8.70
2006,04,28,05,57,8.70
2006,04,28,05,58,8.70
2006,04,28,05,59,8.70
2006,04,28,06,00,8.70
2006,04,28,06,01,8.70
2006,04,28,06,02,8.70
2006,04,28,06,03,8.70
2006,04,28,06,04,8.70
2006,04,28,06,05,8.70
2006,04,28,06,06,8.70
2006,04,28,06,07,8.70
2006,04,28,06,08,8.70
2006,04,28,06,09,8.70
2006,04,28,06,10,8.70
2006,04,28,06,11,8.70
2006,04,28,06,12,8.70
2006,04,28,06,13,8.70
2006,04,28,06,14,8.60
2006,04,28,06,15,8.60
2006,04,28,06,16,8.50
2006,04,28,06,17,8.50
2006,04,28,06,18,8.50
2006,04,28,06,19,8.40
2006,04,28,06,20,8.40
2006,04,28,06,21,8.30
2006,04,28,06,22,8.30
2006,04,28,06,23,8.30
2006,04,28,06,24,8.20
2006,04,28,06,25,8.20
2006,04,28,06,26,8.20
2006,04,28,06,27,8.20
2006,04,28,06,28,8.20
2006,04,28,06,29,8.20
2006,04,28,06,30,8.20
2006,04,28,06,31,8.20
2006,04,28,06,32,8.30
2006,04,28,06,33,8.30
2006,04,28,06,34,8.30
2006,04,28,06,35,8.30
2006,04,28,06,36,8.40
2006,04,28,06,37,8.40
2006,04,28,06,38,8.50
2006,04,28,06,39,8.50
2006,04,28,06,40,8.50
2006,04,28,06,41,8.50
2006,04,28,06,42,8.60
2006,04,28,06,43,8.60
2006,04,28,06,44,8.60
2006,04,28,06,45,8.60
2006,04,28,06,46,8.60
2006,04,28,06,47,8.60
2006,04,28,06,48,8.70
2006,04,28,06,49,8.70
2006,04,28,06,50,8.80
2006,04,28,06,51,8.90
2006,04,28,06,52,8.90
2006,04,28,06,53,9.00
2006,04,28,06,54,9.00
2006,04,28,06,55,9.00
2006,04,28,06,56,9.10
2006,04,28,06,57,9.10
2006,04,28,06,58,9.10
2006,04,28,06,59,9.20
2006,04,28,07,00,9.20
2006,04,28,07,01,9.20
2006,04,28,07,02,9.30
2006,04,28,07,03,9.30
2006,04,28,07,04,9.30
2006,04,28,07,05,9.40
2006,04,28,07,06,9.40
2006,04,28,07,07,9.50
2006,04,28,07,08,9.50
2006,04,28,07,09,9.60
2006,04,28,07,10,9.60
2006,04,28,07,11,9.60
2006,04,28,07,12,9.70
2006,04,28,07,13,9.70
2006,04,28,07,14,9.70
2006,04,28,07,15,9.70
2006,04,28,07,16,9.70
2006,04,28,07,17,9.70
2006,04,28,07,18,9.80
2006,04,28,07,19,9.80
2006,04,28,07,20,9.90
2006,04,28,07,21,9.90
2006,04,28,07,22,9.90
2006,04,28,07,23,9.90
2006,04,28,07,24,9.90
2006,04,28,07,25,10.00
2006,04,28,07,26,10.10
2006,04,28,07,27,10.10
2006,04,28,07,28,10.10
2006,04,28,07,29,10.10
2006,04,28,07,30,10.20
2006,04,28,07,31,10.20
2006,04,28,07,32,10.20
2006,04,28,07,33,10.30
2006,04,28,07,34,10.30
2006,04,28,07,35,10.30
2006,04,28,07,36,10.30
2006,04,28,07,37,10.30
2006,04,28,07,38,10.30
2006,04,28,07,39,10.30
2006,04,28,07,40,10.30
2006,04,28,07,41,10.30
2006,04,28,07,42,10.30
2006,04,28,07,43,10.30
2006,04,28,07,44,10.30
2006,04,28,07,45,10.40
2006,04,28,07,46,10.40
2006,04,28,07,47,10.50
2006,04,28,07,48,10.60
2006,04,28,07,49,10.60
2006,04,28,07,50,10.70
2006,04,28,07,51,10.70
2006,04,28,07,52,10.80
2006,04,28,07,53,10.90
2006,04,28,07,54,10.90
2006,04,28,07,55,10.90
2006,04,28,07,56,10.90
2006,04,28,07,57,11.00
2006,04,28,07,58,11.10
2006,04,28,07,59,11.10
2006,04,28,08,00,11.10
2006,04,28,08,01,11.10
2006,04,28,08,02,11.10
2006,04,28,08,03,11.20
2006,04,28,08,04,11.20
2006,04,28,08,05,11.20
2006,04,28,08,06,11.30
2006,04,28,08,07,11.30
2006,04,28,08,08,11.30
2006,04,28,08,09,11.40
2006,04,28,08,10,11.40
2006,04,28,08,11,11.40
2006,04,28,08,12,11.40
2006,04,28,08,13,11.40
2006,04,28,08,14,11.40
2006,04,28,08,15,11.40
2006,04,28,08,16,11.40
2006,04,28,08,17,11.30
2006,04,28,08,18,11.20
2006,04,28,08,19,11.20
2006,04,28,08,20,11.10
2006,04,28,08,21,11.10
2006,04,28,08,22,11.10
2006,04,28,08,23,11.10
2006,04,28,08,24,11.20
2006,04,28,08,25,11.20
2006,04,28,08,26,11.30
2006,04,28,08,27,11.40
2006,04,28,08,28,11.40
2006,04,28,08,29,11.40
2006,04,28,08,30,11.40
2006,04,28,08,31,11.30
2006,04,28,08,32,11.30
2006,04,28,08,33,11.30
2006,04,28,08,34,11.30
2006,04,28,08,35,11.30
2006,04,28,08,36,11.40
2006,04,28,08,37,11.40
2006,04,28,08,38,11.40
2006,04,28,08,39,11.50
2006,04,28,08,40,11.60
2006,04,28,08,41,11.60
2006,04,28,08,42,11.70
2006,04,28,08,43,11.70
2006,04,28,08,44,11.80
2006,04,28,08,45,11.80
2006,04,28,08,46,11.80
2006,04,28,08,47,11.90
2006,04,28,08,48,11.90
2006,04,28,08,49,12.00
2006,04,28,08,50,12.00
2006,04,28,08,51,12.10
2006,04,28,08,52,12.10
2006,04,28,08,53,12.20
2006,04,28,08,54,12.30
2006,04,28,08,55,12.30
2006,04,28,08,56,12.30
2006,04,28,08,57,12.30
2006,04,28,08,58,12.30
2006,04,28,08,59,12.40
2006,04,28,09,00,12.40
2006,04,28,09,01,12.50
2006,04,28,09,02,12.50
2006,04,28,09,03,12.50
2006,04,28,09,04,12.50
2006,04,28,09,05,12.50
2006,04,28,09,06,12.50
2006,04,28,09,07,12.50
2006,04,28,09,08,12.50
2006,04,28,09,09,12.50
2006,04,28,09,10,12.50
2006,04,28,09,11,12.60
2006,04,28,09,12,12.50
2006,04,28,09,13,12.50
2006,04,28,09,14,12.50
2006,04,28,09,15,12.50
2006,04,28,09,16,12.50
2006,04,28,09,17,12.50
2006,04,28,09,18,12.50
2006,04,28,09,19,12.50
2006,04,28,09,20,12.50
2006,04,28,09,21,12.50
2006,04,28,09,22,12.50
2006,04,28,09,23,12.60
2006,04,28,09,24,12.60
2006,04,28,09,25,12.70
2006,04,28,09,26,12.70
2006,04,28,09,27,12.70
2006,04,28,09,28,12.70
2006,04,28,09,29,12.70
2006,04,28,09,30,12.70
2006,04,28,09,31,12.70
2006,04,28,09,32,12.80
2006,04,28,09,33,12.80
2006,04,28,09,34,12.80
2006,04,28,09,35,12.80
2006,04,28,09,36,12.80
2006,04,28,09,37,12.80
2006,04,28,09,38,12.70
2006,04,28,09,39,12.70
2006,04,28,09,40,12.60
2006,04,28,09,41,12.60
2006,04,28,09,42,12.60
2006,04,28,09,43,12.60
2006,04,28,09,44,12.70
2006,04,28,09,45,12.70
2006,04,28,09,46,12.80
2006,04,28,09,47,12.80
2006,04,28,09,48,12.80
2006,04,28,09,49,12.80
2006,04,28,09,50,12.70
2006,04,28,09,51,12.70
2006,04,28,09,52,12.80
2006,04,28,09,53,12.80
2006,04,28,09,54,12.80
2006,04,28,09,55,12.90
2006,04,28,09,56,13.00
2006,04,28,09,57,13.00
2006,04,28,09,58,13.00
2006,04,28,09,59,12.90
2006,04,28,10,00,12.90
2006,04,28,10,01,12.80
2006,04,28,10,02,12.80
2006,04,28,10,03,12.80
2006,04,28,10,04,12.80
2006,04,28,10,05,12.80
2006,04,28,10,06,12.80
2006,04,28,10,07,12.80
2006,04,28,10,08,12.80
2006,04,28,10,09,12.90
2006,04,28,10,10,12.90
2006,04,28,10,11,13.00
2006,04,28,10,12,13.10
2006,04,28,10,13,13.20
2006,04,28,10,14,13.20
2006,04,28,10,15,13.10
2006,04,28,10,16,13.10
2006,04,28,10,17,13.00
2006,04,28,10,18,12.90
2006,04,28,10,19,12.80
2006,04,28,10,20,12.80
2006,04,28,10,21,12.80
2006,04,28,10,22,12.80
2006,04,28,10,23,12.80
2006,04,28,10,24,12.80
2006,04,28,10,25,12.80
2006,04,28,10,26,12.90
2006,04,28,10,27,13.00
2006,04,28,10,28,13.10
2006,04,28,10,29,13.10
2006,04,28,10,30,13.20
2006,04,28,10,31,13.40
2006,04,28,10,32,13.30
2006,04,28,10,33,13.30
2006,04,28,10,34,13.30
2006,04,28,10,35,13.30
2006,04,28,10,36,13.40
2006,04,28,10,37,13.40
2006,04,28,10,38,13.50
2006,04,28,10,39,13.50
2006,04,28,10,40,13.50
2006,04,28,10,41,13.50
2006,04,28,10,42,13.60
2006,04,28,10,43,13.70
2006,04,28,10,44,13.60
2006,04,28,10,45,13.50
2006,04,28,10,46,13.50
2006,04,28,10,47,13.50
2006,04,28,10,48,13.50
2006,04,28,10,49,13.50
2006,04,28,10,50,13.50
2006,04,28,10,51,13.60
2006,04,28,10,52,13.70
2006,04,28,10,53,13.70
2006,04,28,10,54,13.80
2006,04,28,10,55,13.80
2006,04,28,10,56,13.90
2006,04,28,10,57,14.00
2006,04,28,10,58,13.90
2006,04,28,10,59,13.90
2006,04,28,11,00,14.00
2006,04,28,11,01,14.10
2006,04,28,11,02,14.10
2006,04,28,11,03,14.20
2006,04,28,11,04,14.20
2006,04,28,11,05,14.30
2006,04,28,11,06,14.30
2006,04,28,11,07,14.40
2006,04,28,11,08,14.40
2006,04,28,11,09,14.50
2006,04,28,11,10,14.50
2006,04,28,11,11,14.50
2006,04,28,11,12,14.50
2006,04,28,11,13,14.50
2006,04,28,11,14,14.40
2006,04,28,11,15,14.30
2006,04,28,11,16,14.30
2006,04,28,11,17,14.30
2006,04,28,11,18,14.20
2006,04,28,11,19,14.20
2006,04,28,11,20,14.20
2006,04,28,11,21,14.40
2006,04,28,11,22,14.50
2006,04,28,11,23,14.50
2006,04,28,11,24,14.60
2006,04,28,11,25,14.60
2006,04,28,11,26,14.50
2006,04,28,11,27,14.30
2006,04,28,11,28,14.20
2006,04,28,11,29,14.10
2006,04,28,11,30,14.00
2006,04,28,11,31,13.90
2006,04,28,11,32,13.80
2006,04,28,11,33,13.80
2006,04,28,11,34,13.80
2006,04,28,11,35,13.80
2006,04,28,11,36,13.80
2006,04,28,11,37,13.80
2006,04,28,11,38,13.90
2006,04,28,11,39,13.90
2006,04,28,11,40,13.90
2006,04,28,11,41,13.90
2006,04,28,11,42,14.00
2006,04,28,11,43,14.10
2006,04,28,11,44,14.20
2006,04,28,11,45,14.40
2006,04,28,11,46,14.40
2006,04,28,11,47,14.40
2006,04,28,11,48,14.30
2006,04,28,11,49,14.20
2006,04,28,11,50,14.20
2006,04,28,11,51,14.20
2006,04,28,11,52,14.20
2006,04,28,11,53,14.20
2006,04,28,11,54,14.30
2006,04,28,11,55,14.40
2006,04,28,11,56,14.50
2006,04,28,11,57,14.60
2006,04,28,11,58,14.70
2006,04,28,11,59,14.80
2006,04,28,12,00,14.80
2006,04,28,12,01,14.80
2006,04,28,12,02,14.90
2006,04,28,12,03,14.90
2006,04,28,12,04,15.00
2006,04,28,12,05,15.20
2006,04,28,12,06,15.30
2006,04,28,12,07,15.30
2006,04,28,12,08,15.40
2006,04,28,12,09,15.50
2006,04,28,12,10,15.70
2006,04,28,12,11,15.80
2006,04,28,12,12,15.80
2006,04,28,12,13,15.90
2006,04,28,12,14,16.10
2006,04,28,12,15,16.20
2006,04,28,12,16,16.30
2006,04,28,12,17,16.40
2006,04,28,12,18,16.50
2006,04,28,12,19,16.60
2006,04,28,12,20,16.60
2006,04,28,12,21,16.70
2006,04,28,12,22,16.70
2006,04,28,12,23,16.70
2006,04,28,12,24,16.70
2006,04,28,12,25,16.80
2006,04,28,12,26,16.70
2006,04,28,12,27,16.70
2006,04,28,12,28,16.50
2006,04,28,12,29,16.40
2006,04,28,12,30,16.30
2006,04,28,12,31,16.20
2006,04,28,12,32,16.10
2006,04,28,12,33,16.00
2006,04,28,12,34,15.90
2006,04,28,12,35,15.80
2006,04,28,12,36,15.80
2006,04,28,12,37,15.80
2006,04,28,12,38,15.80
2006,04,28,12,39,15.80
2006,04,28,12,40,15.80
2006,04,28,12,41,15.80
2006,04,28,12,42,15.80
2006,04,28,12,43,15.80
2006,04,28,12,44,15.80
2006,04,28,12,45,15.80
2006,04,28,12,46,15.80
2006,04,28,12,47,15.80
2006,04,28,12,48,15.80
2006,04,28,12,49,15.80
2006,04,28,12,50,15.80
2006,04,28,12,51,15.80
2006,04,28,12,52,15.80
2006,04,28,12,53,15.80
2006,04,28,12,54,15.80
2006,04,28,12,55,15.90
2006,04,28,12,56,15.90
2006,04,28,12,57,15.90
2006,04,28,12,58,15.90
2006,04,28,12,59,15.90
2006,04,28,13,00,15.90
2006,04,28,13,01,15.80
2006,04,28,13,02,15.90
2006,04,28,13,03,15.90
2006,04,28,13,04,15.90
2006,04,28,13,05,15.80
2006,04,28,13,06,15.80
2006,04,28,13,07,15.80
2006,04,28,13,08,15.80
2006,04,28,13,09,15.80
2006,04,28,13,10,15.90
2006,04,28,13,11,15.90
2006,04,28,13,12,15.90
2006,04,28,13,13,16.00
2006,04,28,13,14,16.00
2006,04,28,13,15,15.90
2006,04,28,13,16,15.80
2006,04,28,13,17,15.80
2006,04,28,13,18,15.80
2006,04,28,13,19,15.80
2006,04,28,13,20,15.80
2006,04,28,13,21,15.90
2006,04,28,13,22,15.90
2006,04,28,13,23,15.90
2006,04,28,13,24,15.90
2006,04,28,13,25,15.90
2006,04,28,13,26,16.10
2006,04,28,13,27,16.10
2006,04,28,13,28,16.10
2006,04,28,13,29,16.10
2006,04,28,13,30,16.20
2006,04,28,13,31,16.20
2006,04,28,13,32,16.30
2006,04,28,13,33,16.30
2006,04,28,13,34,16.40
2006,04,28,13,35,16.50
2006,04,28,13,36,16.60
2006,04,28,13,37,16.40
2006,04,28,13,38,16.40
2006,04,28,13,39,16.30
2006,04,28,13,40,16.30
2006,04,28,13,41,16.40
2006,04,28,13,42,16.40
2006,04,28,13,43,16.40
2006,04,28,13,44,16.50
2006,04,28,13,45,16.60
2006,04,28,13,46,16.60
2006,04,28,13,47,16.70
2006,04,28,13,48,16.70
2006,04,28,13,49,16.70
2006,04,28,13,50,16.70
2006,04,28,13,51,16.70
2006,04,28,13,52,16.70
2006,04,28,13,53,16.70
2006,04,28,13,54,16.80
2006,04,28,13,55,16.80
2006,04,28,13,56,16.90
2006,04,28,13,57,16.90
2006,04,28,13,58,16.90
2006,04,28,13,59,16.90
2006,04,28,14,00,16.90
2006,04,28,14,01,16.80
2006,04,28,14,02,16.70
2006,04,28,14,03,16.70
2006,04,28,14,04,16.70
2006,04,28,14,05,16.70
2006,04,28,14,06,16.70
2006,04,28,14,07,16.70
2006,04,28,14,08,16.80
2006,04,28,14,09,16.80
2006,04,28,14,10,16.70
2006,04,28,14,11,16.70
2006,04,28,14,12,16.70
2006,04,28,14,13,16.70
2006,04,28,14,14,16.60
2006,04,28,14,15,16.60
2006,04,28,14,16,16.60
2006,04,28,14,17,16.60
2006,04,28,14,18,16.60
2006,04,28,14,19,16.60
2006,04,28,14,20,16.60
2006,04,28,14,21,16.60
2006,04,28,14,22,16.50
2006,04,28,14,23,16.40
2006,04,28,14,24,16.40
2006,04,28,14,25,16.30
2006,04,28,14,26,16.30
2006,04,28,14,27,16.30
2006,04,28,14,28,16.20
2006,04,28,14,29,16.20
2006,04,28,14,30,16.20
2006,04,28,14,31,16.20
2006,04,28,14,32,16.20
2006,04,28,14,33,16.30
2006,04,28,14,34,16.20
2006,04,28,14,35,16.20
2006,04,28,14,36,16.20
2006,04,28,14,37,16.10
2006,04,28,14,38,16.10
2006,04,28,14,39,16.10
2006,04,28,14,40,16.10
2006,04,28,14,41,16.10
2006,04,28,14,42,16.10
2006,04,28,14,43,16.10
2006,04,28,14,44,16.00
2006,04,28,14,45,15.90
2006,04,28,14,46,15.80
2006,04,28,14,47,15.70
2006,04,28,14,48,15.60
2006,04,28,14,49,15.50
2006,04,28,14,50,15.50
2006,04,28,14,51,15.50
2006,04,28,14,52,15.50
2006,04,28,14,53,15.60
2006,04,28,14,54,15.70
2006,04,28,14,55,15.80
2006,04,28,14,56,15.90
2006,04,28,14,57,16.10
2006,04,28,14,58,16.10
2006,04,28,14,59,16.20
2006,04,28,15,00,16.30
2006,04,28,15,01,16.40
2006,04,28,15,02,16.50
2006,04,28,15,03,16.60
2006,04,28,15,04,16.60
2006,04,28,15,05,16.60
2006,04,28,15,06,16.60
2006,04,28,15,07,16.60
2006,04,28,15,08,16.50
2006,04,28,15,09,16.40
2006,04,28,15,10,16.40
2006,04,28,15,11,16.40
2006,04,28,15,12,16.60
2006,04,28,15,13,16.60
2006,04,28,15,14,16.60
2006,04,28,15,15,16.70
2006,04,28,15,16,16.80
2006,04,28,15,17,16.90
2006,04,28,15,18,16.90
2006,04,28,15,19,17.00
2006,04,28,15,20,17.00
2006,04,28,15,21,17.00
2006,04,28,15,22,16.90
2006,04,28,15,23,16.80
2006,04,28,15,24,16.70
2006,04,28,15,25,16.60
2006,04,28,15,26,16.40
2006,04,28,15,27,16.40
2006,04,28,15,28,16.40
2006,04,28,15,29,16.40
2006,04,28,15,30,16.40
2006,04,28,15,31,16.40
2006,04,28,15,32,16.50
2006,04,28,15,33,16.60
2006,04,28,15,34,16.60
2006,04,28,15,35,16.70
2006,04,28,15,36,16.70
2006,04,28,15,37,16.70
2006,04,28,15,38,16.80
2006,04,28,15,39,16.80
2006,04,28,15,40,16.70
2006,04,28,15,41,16.70
2006,04,28,15,42,16.70
2006,04,28,15,43,16.70
2006,04,28,15,44,16.60
2006,04,28,15,45,16.60
2006,04,28,15,46,16.60
2006,04,28,15,47,16.70
2006,04,28,15,48,16.70
2006,04,28,15,49,16.70
2006,04,28,15,50,16.70
2006,04,28,15,51,16.70
2006,04,28,15,52,16.80
2006,04,28,15,53,16.80
2006,04,28,15,54,16.80
2006,04,28,15,55,16.80
2006,04,28,15,56,16.70
2006,04,28,15,57,16.50
2006,04,28,15,58,16.40
2006,04,28,15,59,16.40
2006,04,28,16,00,16.40
2006,04,28,16,01,16.40
2006,04,28,16,02,16.40
2006,04,28,16,03,16.40
2006,04,28,16,04,16.50
2006,04,28,16,05,16.60
2006,04,28,16,06,16.60
2006,04,28,16,07,16.60
2006,04,28,16,08,16.60
2006,04,28,16,09,16.60
2006,04,28,16,10,16.60
2006,04,28,16,11,16.60
2006,04,28,16,12,16.60
2006,04,28,16,13,16.60
2006,04,28,16,14,16.60
2006,04,28,16,15,16.50
2006,04,28,16,16,16.40
2006,04,28,16,17,16.40
2006,04,28,16,18,16.30
2006,04,28,16,19,16.20
2006,04,28,16,20,16.20
2006,04,28,16,21,16.10
2006,04,28,16,22,16.10
2006,04,28,16,23,16.00
2006,04,28,16,24,15.90
2006,04,28,16,25,15.80
2006,04,28,16,26,15.80
2006,04,28,16,27,15.80
2006,04,28,16,28,15.80
2006,04,28,16,29,15.80
2006,04,28,16,30,15.80
2006,04,28,16,31,15.80
2006,04,28,16,32,15.80
2006,04,28,16,33,15.80
2006,04,28,16,34,15.70
2006,04,28,16,35,15.70
2006,04,28,16,36,15.70
2006,04,28,16,37,15.80
2006,04,28,16,38,15.80
2006,04,28,16,39,15.80
2006,04,28,16,40,15.80
2006,04,28,16,41,15.90
2006,04,28,16,42,15.90
2006,04,28,16,43,16.00
2006,04,28,16,44,16.10
2006,04,28,16,45,16.10
2006,04,28,16,46,16.20
2006,04,28,16,47,16.30
2006,04,28,16,48,16.30
2006,04,28,16,49,16.30
2006,04,28,16,50,16.30
2006,04,28,16,51,16.20
2006,04,28,16,52,16.20
2006,04,28,16,53,16.10
2006,04,28,16,54,16.10
2006,04,28,16,55,16.10
2006,04,28,16,56,16.10
2006,04,28,16,57,16.10
2006,04,28,16,58,16.20
2006,04,28,16,59,16.20
2006,04,28,17,00,16.30
2006,04,28,17,01,16.30
2006,04,28,17,02,16.40
2006,04,28,17,03,16.40
2006,04,28,17,04,16.40
2006,04,28,17,05,16.40
2006,04,28,17,06,16.40
2006,04,28,17,07,16.30
2006,04,28,17,08,16.30
2006,04,28,17,09,16.30
2006,04,28,17,10,16.30
2006,04,28,17,11,16.20
2006,04,28,17,12,16.20
2006,04,28,17,13,16.10
2006,04,28,17,14,16.10
2006,04,28,17,15,16.10
2006,04,28,17,16,16.10
2006,04,28,17,17,16.10
2006,04,28,17,18,16.10
2006,04,28,17,19,16.00
2006,04,28,17,20,15.90
2006,04,28,17,21,15.90
2006,04,28,17,22,15.90
2006,04,28,17,23,15.80
2006,04,28,17,24,15.80
2006,04,28,17,25,15.80
2006,04,28,17,26,15.80
2006,04,28,17,27,15.80
2006,04,28,17,28,15.80
2006,04,28,17,29,15.80
2006,04,28,17,30,15.80
2006,04,28,17,31,15.80
2006,04,28,17,32,15.80
2006,04,28,17,33,15.80
2006,04,28,17,34,15.80
2006,04,28,17,35,15.80
2006,04,28,17,36,15.80
2006,04,28,17,37,15.60
2006,04,28,17,38,15.50